Flag for Germany Weather past 2 weeks in Mosbach, Baden-Württemberg, Germany

Now
61 °F

Overcast.


Feels Like: 61 °F
Forecast: 54 / 67 °F
Wind: 1 mph from Southeast

Location: Oehringen

Current Time: May 24, 2015 at 11:36:35 PM

Latest Report: May 24, 2015 at 11:00 PM


Visibility: 19 mi

Pressure: 30.04 "Hg

Humidity: 60%

Dew point: 47 °F

Location of MosbachLocation

Historic Weather in Mosbach — Graph

°F

Mosbach temperature yesterday

Maximum temperature yesterday: 68 °F (at 1:00 PM)
Minimum temperature yesterday: 45 °F (at 6:00 AM)
Average temperature yesterday: 58 °F

Past Weeks' High & Low Weather Summary

 TemperatureHumidityPressure
High83 °F (May 12, 3:00 PM)97% (May 17, 3:00 AM)30.37 "Hg (May 17, 3:00 AM)
Low38 °F (May 22, 6:00 AM)28% (May 15, 7:00 PM)29.71 "Hg (May 18, 9:00 PM)
Average59 °F63%30.08 "Hg
* Reported May 9 10:00 PM — May 24 10:00 PM, Mosbach, Weather by CustomWeather, © 2015

Note: Actual official high and low records may vary slightly from our data, if they occured in-between our weather recording intervals... More about our weather records

Advertising

Mosbach weather history for previous 24 hours

 ConditionsComfort  
Time TempWeatherWind HumidityBarometerVisibility
10:00 PM
Sun, May 24
62 °FOvercast.1 mph58%30.04 "Hg19 mi
9:00 PM64 °FOvercast.2 mph55%30.03 "Hg19 mi
8:00 PM65 °FOvercast.2 mph53%30.03 "Hg19 mi
7:00 PM67 °FOvercast.2 mph49%30.03 "Hg22 mi
6:00 PM67 °FOvercast.3 mph47%30.03 "Hg19 mi
5:00 PM68 °FOvercast.3 mph49%30.04 "Hg16 mi
4:00 PM69 °FOvercast.3 mph45%30.04 "Hg17 mi
3:00 PM69 °FOvercast.3 mph47%30.04 "Hg17 mi
2:00 PM69 °FOvercast.2 mph47%30.05 "Hg18 mi
1:00 PM68 °FOvercast.2 mph48%30.06 "Hg14 mi
12:00 PM66 °FOvercast.3 mph55%30.07 "Hg11 mi
11:00 AM65 °FOvercast.3 mph59%30.08 "Hg9 mi
10:00 AM62 °FOvercast.2 mph68%30.09 "Hg10 mi
9:00 AM60 °FOvercast.1 mph72%30.08 "Hg9 mi
8:00 AM57 °FOvercast.1 mph78%30.08 "Hg7 mi
7:00 AM55 °FOvercast.2 mph78%30.08 "Hg8 mi
6:00 AM55 °FOvercast.2 mph77%30.07 "Hg9 mi
5:00 AM56 °FOvercast.2 mph73%30.07 "Hg10 mi
4:00 AM56 °FOvercast.1 mph73%30.07 "Hg11 mi
3:00 AM56 °FOvercast.1 mph77%30.07 "Hg12 mi
2:00 AM57 °FOvercast.1 mph74%30.07 "Hg14 mi
1:00 AM59 °FOvercast.1 mph66%30.07 "Hg15 mi
12:00 AM60 °FOvercast.1 mph64%30.07 "Hg15 mi
11:00 PM
Sat, May 23
61 °FOvercast.2 mph60%30.07 "Hg16 mi
Weather by CustomWeather, © 2015

See weather overviewHow to use our weather pages